Regional Weather Roundup
Issued by NWS

Home | Current Version | Previous Version | Graphics & Text | Print | Product List | Glossary On
Versions: 1 2 3 4 5 6 7 8 9 10 11 12 13 14 15 16 17 18 19 20 21 22 23 24 25 26 27 28 29 30 31 32 33 34 35 36 37 38 39 40 41 42 43 44 45 46 47 48 49 50
730
ASUS43 KFSD 201702
RWRSD

WEATHER ROUNDUP FOR SOUTH DAKOTA
NATIONAL WEATHER SERVICE SIOUX FALLS SD
1100 AM CST MON NOV 20 2017

NOTE: "FAIR" INDICATES FEW OR NO CLOUDS BELOW 12,000 FEET WITH NO
SIGNIFICANT WEATHER AND/OR OBSTRUCTIONS TO VISIBILITY.


SDZ001>005-009-010-012>017-201800-
NORTHWEST AND NORTH CENTRAL SOUTH DAKOTA

CITY           SKY/WX    TMP DP  RH WIND       PRES   REMARKS
BUFFALO          N/A     52  17  25 W15       29.49R
FAITH            N/A     58  16  19 W20G26    29.54S
MOBRIDGE       CLOUDY    43  27  53 S3        29.47R
$$

SDZ012>016-024>037-041>051-057-063-072>074-201800-
SOUTHWEST AND SOUTH CENTRAL SOUTH DAKOTA

CITY           SKY/WX    TMP DP  RH WIND       PRES   REMARKS
RAPID CTY ARPT SUNNY     61  11  14 W7        29.60R
PIERRE         CLOUDY    45  23  42 W10       29.53R
CUSTER         SUNNY     48   8  19 W15G22    29.69R
ELLSWORTH AFB  SUNNY     60  12  15 SW8       29.59R
PHILIP         CLOUDY    55  22  27 W9        29.56F
PINE RIDGE     CLOUDY    53  14  21 W12G21    29.67S
SPEARFISH      FAIR      57  10  15 W14G26    29.60S
WINNER         FAIR      49  23  36 SW8       29.57R
$$

SDZ004>011-016>023-039-040-201800-
NORTHEAST SOUTH DAKOTA

CITY           SKY/WX    TMP DP  RH WIND       PRES   REMARKS
ABERDEEN       CLOUDY    37  27  67 S8        29.48F
WATERTOWN      CLOUDY    38  28  67 S8        29.48F
BROOKINGS      CLOUDY    37  27  67 S7        29.51F
SISSETON         N/A     47  24  40 SW18      29.41F
$$

SDZ017-020-022-023-036>040-048>070-201800-
SOUTHEAST SOUTH DAKOTA

CITY           SKY/WX    TMP DP  RH WIND       PRES   REMARKS
SIOUX FALLS    CLOUDY    42  27  55 SW6       29.56F
HURON          CLOUDY    41  26  55 CALM      29.52F
CHAMBERLAIN    CLOUDY    44  26  48 W5        29.55S
MITCHELL       CLOUDY    44  26  49 W7        29.55F
YANKTON        CLOUDY    46  24  42 SW13      29.57F
$$

ABBREVIATIONS USED IN REMARKS
   TC - TEMPERATURE IN CELSIUS
  WCI - WIND CHILL INDEX
   HX - HEAT INDEX
  VSB - VISIBILITY





USA.gov is the U.S. government's official web portal to all federal, state and local government web resources and services.